Powrót do katalogu

USA 550

AktywnyMilitariaSSO
NORAD 65076·PAYLOAD·🇺🇸 United States

Wystrzelony Jul 31, 2025 z Vandenberg Space Force Base

Loading…

Następne Przeloty (najbliższe 24 godziny)

TLE

NieaktualneSource: Mike McCants

Epoka: Aug 15, 2026, 22:53 UTC

1 65076U 25165W   26227.95376237 0.00000000  00000-0  00000-0 0    07
2 65076  97.6043 320.9674 0000604 287.5402  72.4596 15.40353194    02

Śledź USA 550 w czasie rzeczywistym z AllMySat

Download on the App Store